sat.trackr.live / text

‹ back to catalog

GAOFEN-2

NORAD 40118 · 2014-049A

PAYLOAD ACTIVE UNKNOWN

§ Identity

Operator
Country
PRC
Launch date
2014-08-19
Launch site
TAISC
Launch vehicle
Mass (kg)
RCS (m²)
3.51

Purposes: earth_obs

External: N2YO · Heavens-Above · Gunter

§ Orbital elements

Epoch: 2026-09-20T04:09:10.489248Z

Period
97.23 min
Inclination
98.0015°
Eccentricity
0.0006024
Mean motion
14.81003665 rev/d
Perigee alt
621.9 km
Apogee alt
630.4 km
Semi-major
7,004.3 km
B*
3.8702e-5
RAAN
327.2463°
Arg perigee
291.0350°
Mean anomaly
69.0217°
Rev number
65,329

§ Raw data

GAOFEN-21 40118U 14049A   26263.17303807  .00000246  00000+0  38702-4 0  99952 40118  98.0015 327.2463 0006024 291.0350  69.0217 14.81003665653292

JSON: /api/v1/satellites/40118 · /tle

For live sub-satellite position, see the globe view (requires WebGL).

§ Visibility from observer

Set your observer location to see the next 7 days of passes ≥ 10°. The values pass through the URL so the page stays shareable.

No JS? Fill the form by hand. The geolocation button needs JavaScript.

§ Radio — SatNOGS DB

ModeDescriptionDownlinkUplink
BPSK s-band wider TX 2.213 GHz

1 transmitter · refreshed weekly from db.satnogs.org